Regional Weather Roundup
Issued by NWS

Home | Current Version | Previous Version | Text Only | Print | Product List | Glossary On
Versions: 1 2 3 4 5 6 7 8 9 10 11 12 13 14 15 16 17 18 19 20 21 22 23 24 25 26 27 28 29 30 31 32 33 34 35 36 37 38 39 40 41 42 43 44 45 46 47 48 49 50
000
ASUS46 KSEW 030310
RWRWA

WASHINGTON REGIONAL WEATHER ROUNDUP
NATIONAL WEATHER SERVICE SEATTLE WA
800 PM PDT TUE SEP 02 2014

NOTE:"FAIR" INDICATES FEW OR NO CLOUDS BELOW 12,000 FEET WITH NO
SIGNIFICANT WEATHER AND/OR OBSTRUCTIONS TO VISIBILITY.

WAZ505-507>509-030400-
SEATTLE, TACOMA, EVERETT, AND VICINITY

CITY           SKY/WX    TMP DP  RH WIND       PRES   REMARKS
EVERETT        CLOUDY    56  51  84 NW10G18   29.83S
BOEING FIELD   CLOUDY    63  53  70 CALM      29.85R
RENTON         CLOUDY    61  56  83 VRB3      29.85R
SEATAC AIRPORT MOCLDY    62  51  67 W10       29.86R
JBLM-MCCHORD   PTCLDY    61  51  69 N10G23    29.86R
PUYALLUP       NOT AVBL
JBLM-FT LEWIS  PTCLDY    61  51  69 S12       29.86R
TACOMA NARROWS PTCLDY    60  49  66 SW17G28   29.83R
$$

WAZ001-503-506-510-514-515-030400-
NORTH INTERIOR

CITY           SKY/WX    TMP DP  RH WIND       PRES   REMARKS
BELLINGHAM     LGT RAIN  57  55  93 VRB3      29.81R
FRIDAY HARBOR  LGT RAIN  56  54  93 SW5       29.84S
EASTSOUND      LGT RAIN  57  55  94 SW6       29.81R
PORT ANGELES   CLOUDY    56  51  84 W5        29.85R
NAS WHIDBEY    MOCLDY    57  53  86 W12       29.84R
BURLINGTON     CLOUDY    55  54  94 CALM      29.84R
$$

WAZ020-022-039-040-504-511-512-030400-
SOUTHWEST INTERIOR

CITY           SKY/WX    TMP DP  RH WIND       PRES   REMARKS
SHELTON        CLEAR     57  50  77 SW15      29.85R
OLYMPIA        PTCLDY    60  49  66 W10       29.89R
CHEHALIS       MOCLDY    63  52  67 W7        29.92R
KELSO          CLEAR     63  52  67 NW5       29.96R
VANCOUVER      CLEAR     66  50  56 NW9       29.92S
SCAPPOOSE, OR  CLEAR     64  51  62 W6        29.92R
PORTLAND, OR   PTCLDY    67  52  58 W12       29.93R
$$

WAZ021-516-517-030400-
WASHINGTON COAST

CITY           SKY/WX    TMP DP  RH WIND       PRES   REMARKS
FORKS          CLOUDY    57  54  89 NW8       29.89R
HOQUIAM        PTCLDY    58  55  90 W13       29.91S
ASTORIA, OR    CLEAR     60  53  77 W7        29.95R
$$

WAZ019-023-024-040-518-519-030400-
CASCADE MOUNTAINS AND COLUMBIA GORGE

CITY           SKY/WX    TMP DP  RH WIND       PRES   REMARKS
STAMPEDE PASS  NOT AVBL
TROUTDALE, OR  PTCLDY    67  50  54 VRB6      29.91R
THE DALLES, OR CLOUDY    68  49  50 W26G33    29.82R
$$

WAZ026-027-041>044-520-521-030400-
EAST SLOPES

CITY           SKY/WX    TMP DP  RH WIND       PRES   REMARKS
OMAK           MOCLDY    61  52  72 SW6       29.65R
WENATCHEE      PTCLDY    66  43  43 W12       29.70R
ELLENSBURG     MOCLDY    60  46  59 NW20G29   29.76R
YAKIMA         LGT RAIN  67  45  45 W29G53    29.74R
$$

WAZ028-034-035-030400-
COLUMBIA BASIN

CITY           SKY/WX    TMP DP  RH WIND       PRES   REMARKS
EPHRATA        CLOUDY    70  42  36 W21G31    29.66R
MOSES LAKE     PTCLDY    70  42  36 W24G32    29.65S
PASCO          PTCLDY    75  49  39 W17       29.68R
HERMISTON, OR  PTCLDY    69  48  47 W22G35    29.73R
$$

WAZ036>038-030400-
NORTHEAST WASHINGTON

CITY           SKY/WX    TMP DP  RH WIND       PRES   REMARKS
SPOKANE GEIGER PTCLDY    69  43  38 S13       29.66S
SPOKANE FELTS  MOCLDY    72  42  34 SW13      29.65F
FAIRCHILD AFB  MOCLDY    68  42  38 SW12      29.67S
COEURDALENE,ID MOCLDY    64  41  42 S7        29.66S
DEER PARK      MOCLDY    68  41  37 S9        29.64F
$$

WAZ029>033-030400-
SOUTHEAST WASHINGTON

CITY           SKY/WX    TMP DP  RH WIND       PRES   REMARKS
PULLMAN        PTCLDY    67  40  37 W10       29.73R
LEWISTON, ID   PTCLDY    76  37  24 NW18G25   29.65R
WALLA WALLA    CLEAR     72  46  39 SW21G26   29.73R
PENDLETON, OR  CLEAR     67  45  45 W35G51    29.74R
$$


USA.gov is the U.S. government's official web portal to all federal, state and local government web resources and services.